Time,TemperatureF,DewpointF,PressureIn,WindDirection,WindDirectionDegrees,WindSpeedMPH,WindSpeedGustMPH,Humidity,HourlyPrecipIn,Conditions,Clouds,dailyrainin,SolarRadiationWatts/m^2,SoftwareType,DateUTC
2013-09-22 00:00:00,76.2,70.3,29.74,NNE,22,2.0,9.0,82,0.00,,,0.00,0.00,VWS V14.00,2013-09-22 05:00:00,
2013-09-22 00:15:00,76.3,70.4,29.74,North,0,2.0,7.0,82,0.00,,,0.00,0.00,VWS V14.00,2013-09-22 05:15:00,
2013-09-22 00:30:00,75.9,70.4,29.74,North,0,1.0,4.0,83,0.00,,,0.00,0.00,VWS V14.00,2013-09-22 05:30:00,
2013-09-22 00:45:00,75.6,70.4,29.74,North,0,1.0,4.0,84,0.00,,,0.00,0.00,VWS V14.00,2013-09-22 05:45:00,
2013-09-22 01:00:00,75.4,70.6,29.74,NNW,338,0.0,3.0,85,0.00,,,0.00,0.00,VWS V14.00,2013-09-22 06:00:00,
2013-09-22 01:15:00,75.2,70.4,29.74,NW,315,0.0,5.0,85,0.00,,,0.00,0.00,VWS V14.00,2013-09-22 06:15:00,
2013-09-22 01:30:00,75.1,70.3,29.73,NW,315,0.0,3.0,85,0.00,,,0.00,0.00,VWS V14.00,2013-09-22 06:30:00,
2013-09-22 01:45:00,75.2,70.4,29.73,NNW,338,1.0,4.0,85,0.00,,,0.00,0.00,VWS V14.00,2013-09-22 06:45:00,
2013-09-22 02:00:00,75.2,70.7,29.74,NNW,338,0.0,3.0,86,0.00,,,0.00,0.00,VWS V14.00,2013-09-22 07:00:00,
2013-09-22 02:15:00,75.1,70.6,29.74,NNW,338,0.0,3.0,86,0.00,,,0.00,0.00,VWS V14.00,2013-09-22 07:15:00,
2013-09-22 02:30:00,74.7,70.6,29.74,NNW,338,0.0,3.0,87,0.00,,,0.00,0.00,VWS V14.00,2013-09-22 07:30:00,
2013-09-22 02:45:00,74.1,70.0,29.73,NNW,338,0.0,4.0,87,0.00,,,0.00,0.00,VWS V14.00,2013-09-22 07:45:00,
2013-09-22 03:00:00,73.5,69.7,29.73,NNW,338,0.0,5.0,88,0.00,,,0.00,0.00,VWS V14.00,2013-09-22 08:00:00,
2013-09-22 03:15:00,73.0,69.2,29.73,NNW,338,0.0,3.0,88,0.00,,,0.00,0.00,VWS V14.00,2013-09-22 08:15:00,
2013-09-22 03:37:00,72.7,68.9,29.72,NNW,338,1.0,5.0,88,0.00,,,0.00,0.00,VWS V14.00,2013-09-22 08:37:00,
2013-09-22 03:45:00,72.6,68.8,29.72,NNW,348,0.0,1.0,88,0.00,,,0.00,0.00,VWS V14.00,2013-09-22 08:45:00,
2013-09-22 04:00:00,0.0,0.0,29.71,North,0,0.0,0.0,0,0.00,,,0.00,0.00,VWS V14.00,2013-09-22 09:00:00,
2013-09-22 04:15:00,0.0,0.0,29.71,North,0,0.0,0.0,0,0.00,,,0.00,0.00,VWS V14.00,2013-09-22 09:15:00,
2013-09-22 04:30:00,0.0,0.0,29.71,North,0,0.0,0.0,0,0.00,,,0.00,0.00,VWS V14.00,2013-09-22 09:30:00,
2013-09-22 04:45:00,0.0,0.0,29.71,North,0,0.0,0.0,0,0.00,,,0.00,0.00,VWS V14.00,2013-09-22 09:45:00,
2013-09-22 05:00:00,0.0,0.0,29.71,North,0,0.0,0.0,0,0.00,,,0.00,0.00,VWS V14.00,2013-09-22 10:00:00,
2013-09-22 05:15:00,0.0,0.0,29.71,North,0,0.0,0.0,0,0.00,,,0.00,0.00,VWS V14.00,2013-09-22 10:15:00,
2013-09-22 05:30:00,0.0,0.0,29.72,North,0,0.0,0.0,0,0.00,,,0.00,0.00,VWS V14.00,2013-09-22 10:30:00,
2013-09-22 05:45:00,0.0,0.0,29.72,North,0,0.0,0.0,0,0.00,,,0.00,0.00,VWS V14.00,2013-09-22 10:45:00,
2013-09-22 06:00:00,0.0,0.0,29.72,North,0,0.0,0.0,0,0.00,,,0.00,0.00,VWS V14.00,2013-09-22 11:00:00,
2013-09-22 06:15:00,0.0,0.0,29.72,North,0,0.0,0.0,0,0.00,,,0.00,0.00,VWS V14.00,2013-09-22 11:15:00,
2013-09-22 06:30:00,0.0,0.0,29.72,North,0,0.0,0.0,0,0.00,,,0.00,0.00,VWS V14.00,2013-09-22 11:30:00,
2013-09-22 06:45:00,0.0,0.0,29.73,North,0,0.0,0.0,0,0.00,,,0.00,0.00,VWS V14.00,2013-09-22 11:45:00,
2013-09-22 07:00:00,0.0,0.0,29.73,North,0,0.0,0.0,0,0.00,,,0.00,0.00,VWS V14.00,2013-09-22 12:00:00,
2013-09-22 07:15:00,0.0,0.0,29.73,North,0,0.0,0.0,0,0.00,,,0.00,0.00,VWS V14.00,2013-09-22 12:15:00,
2013-09-22 07:30:00,0.0,0.0,29.74,North,0,0.0,0.0,0,0.00,,,0.00,0.00,VWS V14.00,2013-09-22 12:30:00,
2013-09-22 07:45:00,0.0,0.0,29.74,North,0,0.0,0.0,0,0.00,,,0.00,0.00,VWS V14.00,2013-09-22 12:45:00,
2013-09-22 08:00:00,68.4,65.0,29.74,NNE,22,2.0,4.0,89,0.00,,,0.00,109.00,VWS V14.00,2013-09-22 13:00:00,
2013-09-22 08:15:00,69.6,65.6,29.74,North,0,2.0,9.0,87,0.00,,,0.00,149.00,VWS V14.00,2013-09-22 13:15:00,
2013-09-22 08:30:00,70.6,65.5,29.75,North,0,3.0,11.0,84,0.00,,,0.00,219.00,VWS V14.00,2013-09-22 13:30:00,
2013-09-22 08:45:00,71.7,65.6,29.75,North,0,3.0,10.0,81,0.00,,,0.00,283.00,VWS V14.00,2013-09-22 13:45:00,
2013-09-22 09:00:00,73.0,65.7,29.75,North,0,3.0,7.0,78,0.00,,,0.00,340.00,VWS V14.00,2013-09-22 14:00:00,
2013-09-22 09:15:00,73.8,65.8,29.76,North,0,3.0,9.0,76,0.00,,,0.00,397.00,VWS V14.00,2013-09-22 14:15:00,
2013-09-22 09:30:00,74.8,66.0,29.76,North,0,3.0,10.0,74,0.00,,,0.00,452.00,VWS V14.00,2013-09-22 14:30:00,
2013-09-22 09:45:00,75.9,65.8,29.77,NNW,338,3.0,10.0,71,0.00,,,0.00,505.00,VWS V14.00,2013-09-22 14:45:00,
2013-09-22 10:00:00,76.8,66.3,29.77,North,0,3.0,11.0,70,0.00,,,0.00,557.00,VWS V14.00,2013-09-22 15:00:00,
2013-09-22 10:15:00,77.2,65.4,29.77,North,0,4.0,11.0,67,0.00,,,0.00,605.00,VWS V14.00,2013-09-22 15:15:00,
2013-09-22 10:30:00,77.7,65.9,29.77,North,0,4.0,10.0,67,0.00,,,0.00,650.00,VWS V14.00,2013-09-22 15:30:00,
2013-09-22 10:45:00,79.1,66.8,29.77,North,0,4.0,12.0,66,0.00,,,0.00,696.00,VWS V14.00,2013-09-22 15:45:00,
2013-09-22 11:00:00,80.1,66.8,29.77,North,0,4.0,10.0,64,0.00,,,0.00,736.00,VWS V14.00,2013-09-22 16:00:00,
2013-09-22 11:15:00,80.8,67.5,29.77,NNW,338,4.0,11.0,64,0.00,,,0.00,771.00,VWS V14.00,2013-09-22 16:15:00,
2013-09-22 11:30:00,81.2,67.4,29.77,North,0,4.0,11.0,63,0.00,,,0.00,802.00,VWS V14.00,2013-09-22 16:30:00,
2013-09-22 11:45:00,81.0,69.0,29.77,North,0,4.0,13.0,67,0.00,,,0.00,826.00,VWS V14.00,2013-09-22 16:45:00,
2013-09-22 12:00:00,81.5,68.2,29.77,NNE,22,4.0,12.0,64,0.00,,,0.00,853.00,VWS V14.00,2013-09-22 17:00:00,
2013-09-22 12:15:00,82.3,68.9,29.77,North,0,4.0,13.0,64,0.00,,,0.00,831.00,VWS V14.00,2013-09-22 17:15:00,
2013-09-22 12:30:00,82.7,69.3,29.76,NNE,22,4.0,9.0,64,0.00,,,0.00,900.00,VWS V14.00,2013-09-22 17:30:00,
2013-09-22 12:45:00,82.6,68.3,29.76,North,0,4.0,11.0,62,0.00,,,0.00,807.00,VWS V14.00,2013-09-22 17:45:00,
2013-09-22 13:00:00,82.2,68.4,29.75,NNE,22,4.0,12.0,63,0.00,,,0.00,566.00,VWS V14.00,2013-09-22 18:00:00,
2013-09-22 13:15:00,83.4,68.6,29.75,North,0,4.0,11.0,61,0.00,,,0.00,749.00,VWS V14.00,2013-09-22 18:15:00,
2013-09-22 13:30:00,82.8,68.9,29.75,North,0,4.0,11.0,63,0.00,,,0.00,476.00,VWS V14.00,2013-09-22 18:30:00,
2013-09-22 13:45:00,83.4,69.9,29.74,North,0,3.0,10.0,64,0.00,,,0.00,558.00,VWS V14.00,2013-09-22 18:45:00,
2013-09-22 14:00:00,84.1,68.7,29.73,North,0,3.0,10.0,60,0.00,,,0.00,600.00,VWS V14.00,2013-09-22 19:00:00,
2013-09-22 14:15:00,83.6,68.7,29.73,North,0,4.0,14.0,61,0.00,,,0.00,728.00,VWS V14.00,2013-09-22 19:15:00,
2013-09-22 14:30:00,84.2,68.8,29.72,North,0,4.0,11.0,60,0.00,,,0.00,835.00,VWS V14.00,2013-09-22 19:30:00,
2013-09-22 14:45:00,85.2,69.3,29.71,NNW,338,4.0,16.0,59,0.00,,,0.00,971.00,VWS V14.00,2013-09-22 19:45:00,
2013-09-22 15:00:00,85.7,68.2,29.71,NNW,338,4.0,12.0,56,0.00,,,0.00,920.00,VWS V14.00,2013-09-22 20:00:00,
2013-09-22 15:15:00,85.0,68.6,29.71,North,0,4.0,11.0,58,0.00,,,0.00,717.00,VWS V14.00,2013-09-22 20:15:00,
2013-09-22 15:30:00,85.5,69.1,29.70,North,0,4.0,12.0,58,0.00,,,0.00,752.00,VWS V14.00,2013-09-22 20:30:00,
2013-09-22 15:45:00,85.4,67.9,29.70,North,0,4.0,10.0,56,0.00,,,0.00,728.00,VWS V14.00,2013-09-22 20:45:00,
2013-09-22 16:00:00,86.2,67.6,29.68,North,0,3.0,10.0,54,0.00,,,0.00,677.00,VWS V14.00,2013-09-22 21:00:00,
2013-09-22 16:15:00,86.1,67.5,29.68,North,0,4.0,12.0,54,0.00,,,0.00,623.00,VWS V14.00,2013-09-22 21:15:00,
2013-09-22 16:30:00,86.4,66.7,29.67,North,0,3.0,9.0,52,0.00,,,0.00,571.00,VWS V14.00,2013-09-22 21:30:00,
2013-09-22 16:45:00,86.1,66.4,29.67,North,0,3.0,10.0,52,0.00,,,0.00,524.00,VWS V14.00,2013-09-22 21:45:00,
2013-09-22 17:00:00,86.1,66.4,29.67,North,0,3.0,10.0,52,0.00,,,0.00,472.00,VWS V14.00,2013-09-22 22:00:00,
2013-09-22 17:15:00,85.8,65.6,29.67,NNE,22,3.0,12.0,51,0.00,,,0.00,420.00,VWS V14.00,2013-09-22 22:15:00,
2013-09-22 17:30:00,85.6,65.4,29.67,North,0,4.0,12.0,51,0.00,,,0.00,366.00,VWS V14.00,2013-09-22 22:30:00,
2013-09-22 17:45:00,85.7,65.5,29.67,NNW,338,3.0,10.0,51,0.00,,,0.00,311.00,VWS V14.00,2013-09-22 22:45:00,
2013-09-22 18:00:00,85.2,63.9,29.68,North,0,3.0,9.0,49,0.00,,,0.00,255.00,VWS V14.00,2013-09-22 23:00:00,
2013-09-22 18:15:00,84.9,64.8,29.68,North,0,2.0,7.0,51,0.00,,,0.00,193.00,VWS V14.00,2013-09-22 23:15:00,
2013-09-22 18:30:00,83.9,63.8,29.68,North,0,3.0,9.0,51,0.00,,,0.00,101.00,VWS V14.00,2013-09-22 23:30:00,
2013-09-22 18:45:00,82.9,62.9,29.68,North,0,2.0,7.0,51,0.00,,,0.00,33.00,VWS V14.00,2013-09-22 23:45:00,
2013-09-22 19:00:00,82.3,63.5,29.68,NNW,338,2.0,6.0,53,0.00,,,0.00,20.00,VWS V14.00,2013-09-23 00:00:00,
2013-09-22 19:15:00,81.4,63.7,29.68,North,0,1.0,7.0,55,0.00,,,0.00,13.00,VWS V14.00,2013-09-23 00:15:00,
2013-09-22 19:33:00,80.6,63.0,29.69,NNW,338,1.0,7.0,55,0.00,,,0.00,3.00,VWS V14.00,2013-09-23 00:33:00,
2013-09-22 19:45:00,80.0,63.4,29.69,North,349,0.0,3.0,57,0.00,,,0.00,0.00,VWS V14.00,2013-09-23 00:45:00,
2013-09-22 20:00:00,79.2,63.7,29.69,North,0,0.0,3.0,59,0.00,,,0.00,0.00,VWS V14.00,2013-09-23 01:00:00,
2013-09-22 20:15:00,79.0,63.5,29.69,North,0,1.0,5.0,59,0.00,,,0.00,0.00,VWS V14.00,2013-09-23 01:15:00,
2013-09-22 20:30:00,79.2,63.7,29.70,North,0,1.0,5.0,59,0.00,,,0.00,0.00,VWS V14.00,2013-09-23 01:30:00,
2013-09-22 20:45:00,79.2,66.0,29.71,NNE,22,1.0,7.0,64,0.00,,,0.00,0.00,VWS V14.00,2013-09-23 01:45:00,
2013-09-22 21:00:00,77.7,65.9,29.71,NNE,22,0.0,3.0,67,0.00,,,0.00,0.00,VWS V14.00,2013-09-23 02:00:00,
2013-09-22 21:15:00,76.5,66.8,29.71,NNE,22,1.0,6.0,72,0.00,,,0.00,0.00,VWS V14.00,2013-09-23 02:15:00,
2013-09-22 21:30:00,75.9,68.2,29.72,NE,45,0.0,3.0,77,0.00,,,0.00,0.00,VWS V14.00,2013-09-23 02:30:00,
2013-09-22 21:45:00,75.5,68.5,29.72,NE,45,1.0,4.0,79,0.00,,,0.00,0.00,VWS V14.00,2013-09-23 02:45:00,
2013-09-22 22:00:00,75.0,68.1,29.72,ENE,68,2.0,7.0,79,0.00,,,0.00,0.00,VWS V14.00,2013-09-23 03:00:00,
2013-09-22 22:15:00,74.5,67.9,29.72,NE,45,1.0,5.0,80,0.00,,,0.00,0.00,VWS V14.00,2013-09-23 03:15:00,
2013-09-22 22:30:00,74.1,67.5,29.72,NE,45,1.0,5.0,80,0.00,,,0.00,0.00,VWS V14.00,2013-09-23 03:30:00,
2013-09-22 22:45:00,73.7,67.5,29.72,NE,45,0.0,5.0,81,0.00,,,0.00,0.00,VWS V14.00,2013-09-23 03:45:00,
2013-09-22 23:00:00,73.3,67.1,29.72,NE,45,0.0,2.0,81,0.00,,,0.00,0.00,VWS V14.00,2013-09-23 04:00:00,
2013-09-22 23:15:00,73.1,66.9,29.72,ENE,68,0.0,4.0,81,0.00,,,0.00,0.00,VWS V14.00,2013-09-23 04:15:00,
2013-09-22 23:30:00,73.4,66.9,29.72,ENE,68,0.0,3.0,80,0.00,,,0.00,0.00,VWS V14.00,2013-09-23 04:30:00,
2013-09-22 23:45:00,74.3,66.2,29.72,NE,45,1.0,6.0,76,0.00,,,0.00,0.00,VWS V14.00,2013-09-23 04:45:00,